Weather in Apraksino

Russia / Kostroma Oblast     57°50′34″N   40°59′04″E
temp.,
°C
wind,
m/s
gust,
m/s
humid.,
%
clouds,
%
prec.,
mm/h
press.,
hPa
HPBL,
m
21 june, mon
mon2100:00+19sw22860 0.0 101914
03:00+18sw22860 0.0 102024
06:00+20wsw24810 0.0 1020121
09:00+25wsw34670 0.0 1020434
12:00+28wsw33566 0.0 10211289
15:00+29wsw33520 0.0 10201582
18:00+28sw246486 0.0 1019424
21:00+23sw238187 0.0 102027
22 june, tue
tue2200:00+21ssw228485 0.0 102028
03:00+19sw228445 0.0 102123
06:00+21sw2382100 0.0 1022120
09:00+25sw226697 0.0 1021375
12:00+27sw3361100 0.0 1021798
15:00+29sw235386 0.0 10211408
18:00+29wsw136191 0.0 10201161
21:00+23wsw11768 0.0 102011
23 june, wed
wed2300:00+20ssw11795 0.0 102011
03:00+19ssw228672 0.0 102112
06:00+22ssw128283 0.0 102189
09:00+26w236794 0.0 1021439
12:00+30w33555 0.0 10201033
15:00+31w33512 0.0 10201235
18:00+30wsw24627 0.0 1019304
21:00+25w337647 0.0 101941
24 june, thu
thu2400:00+22wsw338348 0.0 101930
03:00+20wsw228721 0.0 101911
06:00+23w2481100 0.0 1019132
09:00+27w236399 0.0 1019339
12:00+30wsw3452100 0.0 1019956
15:00+31wsw454845 0.0 10181515
18:00+30sw35605 0.0 1016304
21:00+24ssw34780 0.0 101555
25 june, fri
fri2500:00+22wsw22803 0.0 101618
03:00+20e33877 0.0 101543
06:00+22wnw2382100 0.0 1015135
09:00+25nw236969 0.0 1016538
12:00+29wnw33565 0.0 10161156
15:00+29w44535 0.0 10151476
18:00+28wnw35605 0.0 1014479
21:00+22nne34783 0.1 101455